Location: Kellogg
(38.0159°N, 90.0546°W)
Time: 06:59:15
(UTC+00:00)

Vanguard 1 Rocket - Pass Details

Date: 14 September 2024
Orbit: 650 x 4218 km, 34.3° (Epoch: 05 October)

Event Time Altitude Azimuth Distance (km) Brightness Sun altitude
Rises 16:17:46 0° 287° (WNW) 8,056 11.9 48.5°
Reaches altitude 10° 16:23:28 10° 282° (WNW) 7,257 11.8 49.2°
Maximum altitude 16:46:32 43° 221° (SW) 4,926 11.9 51.6°
Drops below altitude 10° 17:05:01 10° 157° (SSE) 5,861 12.3 53.1°
Sets 17:09:05 0° 150° (SSE) 6,458 12.3 53.4°
